星链-34995 (STARLINK-34995)

导读 | 豆包AI

STARLINK-34995是美国太空探索技术公司(SpaceX)于2025年8月22日发射的星链(Starlink)卫星,运行在近地轨道(LEO),属于星链全球卫星互联网星座的一员,旨在为全球尤其是基础设施匮乏的偏远地区提供高速低延迟宽带互联网服务。作为星链星座扩容的一部分,它助力提升星链网络覆盖能力与服务稳定性。

基本信息
目录编号:
65285
目录名称:
STARLINK-34995
国际标识:
2025-184N
轨道中心:
EARTH
卫星名称:
星链-34995
卫星全名:
星链-34995 (STARLINK-34995)
卫星状态:
在轨 (已飞行225 天)
发射日期:
2025-08-22 UTC
国别 :
美国 (US)
星等 :
--
轨道信息
数据来源 国际轨道数据 AOE轨道数据
星历时间 2026-04-04T01:00:08+0800
18小时前
查看轨道信息
2026-03-31T21:00:00+0800
3天前
查看轨道信息
半长轴 6927.628km 6927.667km
偏心率 0.0001116 0.0000966
轨道倾角 97.601° 97.601°
近地点辐角 114.804° 114.305°
升交点赤经 147.296° 144.175°
平近点角 245.330° 11.602°
近地点 548.717km 548.86km
远地点 550.265km 550.2km
周期 95.639分钟 95.640分钟
每日圈数 15.056566 15.056439
详细信息
固有亮度:
5
最大亮度:
2.5
卫星平台:
Starlink V1.0
覆盖范围:
全球
运营商:
太空探索技术公司
运营商所在国:
美国
制造商(研发单位):
太空探索技术公司
制造商所在国:
美国
使用方式:
暂无
卫星简介
Starlink 计划是 SpaceX 推出的全球卫星互联网项目,通过发射低轨道卫星,为全球尤其是偏远地区提供高速、低延迟的互联网服务。自 2019 年起,Starlink 已部署数千颗卫星,旨在缩小全球数字鸿沟,推动互联网普及。该项目还为军事、航空等行业提供通信支持,带来广泛经济效益。
2D轨道图
3D轨道图
轨道高度分析图
轨道倾角分析图
轨道综合分析图
查看轨道综合分析图